Weather History for Martinsburg, WV

Change the Weather History Date:

Thursday, January 30, 2014

  Actual Average Record
Temperature  
Mean Temperature 14 °F 31 °F  
Max Temperature 30 °F 40 °F 70 °F (1947)
Min Temperature -2 °F 23 °F -2 °F (2014)
Degree Days  
Heating Degree Days 51 34  
Month to date heating degree days 1187 1020  
Since 1 July heating degree days 3135 3046  
Cooling Degree Days 0 0  
Month to date cooling degree days 0 0  
Year to date cooling degree days 0 0  
Moisture  
Dew Point -2 °F    
Average Humidity 50    
Maximum Humidity 71    
Minimum Humidity 28    
Precipitation  
Precipitation 0.00 in 0.08 in 1.49 in (2013)
Month to date precipitation 1.04 2.35  
Year to date precipitation 1.04 2.35  
Sea Level Pressure  
Sea Level Pressure 30.34 in    
Wind  
Wind Speed 4 mph (SSE)    
Max Wind Speed 14 mph    
Max Gust Speed 20 mph    
Visibility 10 miles    
Events      
T = Trace of Precipitation, MM = Missing Value Source: NWS Daily Summary

Daily Weather History Graph

Daily Weather History Graph

Search for Another Location

Airport:

Trip Planner

Search our weather history database for the weather conditions in past years. The results will help you decide how hot, cold, wet, or windy it might be!

Date:

Astronomy

Jan. 30, 2014 Rise Set
Actual Time 7:20 AM EST 5:30 PM EST
Civil Twilight 6:52 AM EST 5:58 PM EST
Nautical Twilight 6:20 AM EST 6:30 PM EST
Astronomical Twilight 5:48 AM EST 7:02 PM EST
Moon 6:45 AM EST (1/30) 5:39 PM EST (1/30)
Length of Visible Light 11h 06m
Length of Day
10h 09m
Waning Crescent, 0% of the Moon is Illuminated
Jan 30
Waning Crescent
Jan 30
New
Feb 6
First Quarter
Feb 14
Full
Feb 22
Last Quarter

Hourly Weather History & Observations

Time (EST) Temp. Windchill Dew Point Humidity Pressure Visibility Wind Dir Wind Speed Gust Speed Precip Events Conditions
12:53 AM 10.9 °F - -7.1 °F 44% 30.38 in 10.0 mi Calm Calm - N/A   Clear
1:53 AM 7.0 °F 0.1 °F -7.1 °F 53% 30.40 in 10.0 mi SE 3.5 mph - N/A   Clear
2:53 AM 5.0 °F - -8.0 °F 55% 30.40 in 10.0 mi Calm Calm - N/A   Clear
3:53 AM 6.1 °F -2.8 °F -7.1 °F 55% 30.41 in 10.0 mi WSW 4.6 mph - N/A   Clear
4:53 AM 3.0 °F - -8.0 °F 60% 30.42 in 10.0 mi Calm Calm - N/A   Clear
5:53 AM -0.0 °F - -9.0 °F 66% 30.43 in 10.0 mi Calm Calm - N/A   Clear
6:53 AM -2.0 °F - -9.9 °F 69% 30.45 in 10.0 mi Calm Calm - N/A   Clear
7:53 AM 1.0 °F - -8.0 °F 66% 30.45 in 9.0 mi Calm Calm - N/A   Clear
8:53 AM 7.0 °F - -5.1 °F 58% 30.46 in 8.0 mi Calm Calm - N/A   Clear
9:53 AM 14.0 °F 8.2 °F -0.9 °F 52% 30.45 in 10.0 mi NW 3.5 mph - N/A   Clear
10:53 AM 19.9 °F 13.4 °F -2.0 °F 38% 30.43 in 10.0 mi SSE 4.6 mph - N/A   Clear
11:53 AM 23.0 °F 12.4 °F -2.0 °F 34% 30.40 in 10.0 mi SE 10.4 mph - N/A   Clear
12:53 PM 26.1 °F 15.6 °F -0.0 °F 32% 30.36 in 10.0 mi SSE 11.5 mph - N/A   Clear
1:53 PM 28.0 °F 19.3 °F 1.0 °F 31% 30.34 in 10.0 mi SSE 9.2 mph 17.3 mph N/A   Clear
2:53 PM 28.9 °F 21.1 °F 1.9 °F 32% 30.31 in 10.0 mi SSE 8.1 mph - N/A   Clear
3:53 PM 30.0 °F 21.1 °F 1.9 °F 30% 30.28 in 10.0 mi SSE 10.4 mph - N/A   Clear
4:53 PM 28.9 °F 20.4 °F 3.0 °F 33% 30.27 in 10.0 mi South 9.2 mph - N/A   Clear
5:53 PM 26.1 °F 18.4 °F 1.9 °F 35% 30.23 in 10.0 mi SE 6.9 mph - N/A   Clear
6:53 PM 26.1 °F - 1.9 °F 35% 30.23 in 10.0 mi Calm Calm - N/A   Clear
7:53 PM 21.9 °F - 1.9 °F 42% 30.23 in 10.0 mi Calm Calm - N/A   Clear
8:53 PM 21.0 °F 14.6 °F 1.9 °F 44% 30.22 in 10.0 mi SSE 4.6 mph - N/A   Clear
9:53 PM 24.1 °F 16.0 °F 3.9 °F 42% 30.18 in 10.0 mi SSE 6.9 mph - N/A   Clear
10:53 PM 25.0 °F 19.3 °F 3.9 °F 41% 30.17 in 10.0 mi South 4.6 mph - N/A   Clear
11:53 PM 21.9 °F - 7.0 °F 53% 30.14 in 10.0 mi Calm Calm - N/A   Clear